Change the Weather History Date:

Thursday, December 12, 2013

  Actual Average (KEYE) Record (KEYE)
Temperature  
Mean Temperature 10 °F 32 °F  
Max Temperature 22 °F 39 °F 53 °F (2006)
Min Temperature -1 °F 26 °F 2 °F (2013)
Degree Days  
Heating Degree Days 54 33  
Month to date heating degree days 365  
Since 1 July heating degree days 1389  
Cooling Degree Days 0 0  
Month to date cooling degree days 0  
Year to date cooling degree days 1058  
Moisture  
Dew Point -2 °F    
Average Humidity 56    
Maximum Humidity 79    
Minimum Humidity 33    
Precipitation  
Precipitation 0.00 in 0.08 in 1.02 in (2006)
Month to date precipitation 1.03  
Year to date precipitation 38.74  
Sea Level Pressure  
Sea Level Pressure 30.43 in    
Wind  
Wind Speed 8 mph (SW)    
Max Wind Speed 16 mph    
Max Gust Speed 21 mph    
Visibility 10 miles    
Events      
T = Trace of Precipitation, MM = Missing Value Source: NWS Daily Summary

Daily Weather History Graph

Daily Weather History Graph

Search for Another Location

Airport or City:

Trip Planner

Search our weather history database for the weather conditions in past years. The results will help you decide how hot, cold, wet, or windy it might be!

Date:

Astronomy

Dec. 12, 2013 Rise Set
Actual Time 7:57 AM EST 5:19 PM EST
Civil Twilight 7:27 AM EST 5:50 PM EST
Nautical Twilight 6:53 AM EST 6:24 PM EST
Astronomical Twilight 6:20 AM EST 6:57 PM EST
Moon 2:26 PM EST (12/12) 3:19 AM EST (12/12)
Length of Visible Light 10h 23m
Length of Day
9h 22m
Waxing Gibbous, 80% of the Moon is Illuminated
Dec 12
Waxing Gibbous
Dec 17
Full
Dec 25
Last Quarter
Jan 1
New
Jan 7
First Quarter

Hourly Weather History & Observations

Time (EST) Temp. Windchill Dew Point Humidity Pressure Visibility Wind Dir Wind Speed Gust Speed Precip Events Conditions
12:15 AM 7.7 °F -3.7 °F 1.4 °F 75% 30.53 in 10.0 mi WNW 6.9 mph - N/A   Clear
12:35 AM 7.5 °F -5.0 °F 0.9 °F 74% 30.54 in 10.0 mi WNW 8.1 mph - N/A   Clear
12:55 AM 7.3 °F -2.8 °F 0.1 °F 72% 30.54 in 10.0 mi WNW 5.8 mph - N/A   Clear
1:15 AM 7.0 °F -3.3 °F -0.8 °F 71% 30.53 in 10.0 mi WNW 5.8 mph - N/A   Clear
1:35 AM 6.8 °F -4.8 °F -1.3 °F 69% 30.53 in 10.0 mi WNW 6.9 mph - N/A   Clear
1:55 AM 5.9 °F -4.5 °F -2.2 °F 69% 30.53 in 10.0 mi WNW 5.8 mph - N/A   Clear
2:15 AM 5.9 °F -7.0 °F -2.2 °F 69% 30.53 in 10.0 mi NW 8.1 mph - N/A   Clear
2:35 AM 6.1 °F -4.3 °F -2.0 °F 69% 30.53 in 10.0 mi WNW 5.8 mph - N/A   Clear
2:55 AM 6.4 °F -2.4 °F -2.0 °F 68% 30.54 in 10.0 mi WNW 4.6 mph - N/A   Scattered Clouds
3:15 AM 6.4 °F -0.5 °F -2.2 °F 68% 30.53 in 10.0 mi West 3.5 mph - N/A   Scattered Clouds
3:35 AM 5.7 °F -3.2 °F -2.2 °F 70% 30.52 in 10.0 mi WNW 4.6 mph - N/A   Scattered Clouds
3:55 AM 4.8 °F -7.1 °F -2.7 °F 71% 30.53 in 10.0 mi West 6.9 mph - N/A   Scattered Clouds
4:15 AM 3.6 °F -7.3 °F -3.5 °F 73% 30.52 in 10.0 mi West 5.8 mph - N/A   Clear
4:35 AM 3.0 °F -4.4 °F -3.6 °F 74% 30.52 in 10.0 mi West 3.5 mph - N/A   Clear
4:55 AM 2.5 °F -7.0 °F -3.5 °F 76% 30.53 in 10.0 mi WSW 4.6 mph - N/A   Clear
5:15 AM 1.0 °F -6.7 °F -4.7 °F 77% 30.52 in 10.0 mi WSW 3.5 mph - N/A   Clear
5:35 AM 1.4 °F -8.3 °F -4.0 °F 78% 30.52 in 10.0 mi WSW 4.6 mph - N/A   Clear
5:55 AM 0.9 °F -6.9 °F -5.1 °F 76% 30.51 in 10.0 mi SW 3.5 mph - N/A   Clear
6:15 AM -1.1 °F -9.1 °F -6.5 °F 78% 30.51 in 10.0 mi SSW 3.5 mph - N/A   Clear
6:35 AM 0.5 °F -7.3 °F -4.7 °F 79% 30.51 in 10.0 mi WSW 3.5 mph - N/A   Clear
6:55 AM 1.0 °F -6.7 °F -4.5 °F 77% 30.50 in 10.0 mi WSW 3.5 mph - N/A   Clear
7:15 AM 0.3 °F -7.5 °F -4.9 °F 79% 30.51 in 10.0 mi WSW 3.5 mph - N/A   Clear
7:35 AM -0.0 °F -9.9 °F -5.3 °F 79% 30.51 in 10.0 mi SW 4.6 mph - N/A   Clear
7:55 AM 0.3 °F -9.5 °F -5.3 °F 77% 30.51 in 10.0 mi SSW 4.6 mph - N/A   Clear
8:15 AM 1.0 °F -8.7 °F -4.5 °F 77% 30.51 in 10.0 mi SSW 4.6 mph - N/A   Clear
8:35 AM 2.3 °F -5.2 °F -3.8 °F 76% 30.51 in 10.0 mi SW 3.5 mph - N/A   Clear
8:55 AM 3.2 °F -6.2 °F -3.1 °F 75% 30.51 in 10.0 mi SSW 4.6 mph - N/A   Clear
9:15 AM 5.0 °F -6.9 °F -2.2 °F 72% 30.51 in 10.0 mi SSW 6.9 mph - N/A   Clear
9:35 AM 6.3 °F -5.4 °F -1.5 °F 71% 30.50 in 10.0 mi SSW 6.9 mph - N/A   Clear
9:55 AM 7.2 °F -5.4 °F -1.7 °F 67% 30.50 in 10.0 mi SSW 8.1 mph - N/A   Clear
10:15 AM 9.3 °F -2.8 °F -1.8 °F 61% 30.51 in 10.0 mi SW 8.1 mph - N/A   Clear
10:35 AM 10.4 °F -2.4 °F -2.6 °F 56% 30.51 in 10.0 mi SW 9.2 mph - N/A   Scattered Clouds
10:55 AM 12.2 °F -1.8 °F -3.8 °F 49% 30.50 in 10.0 mi SW 11.5 mph - N/A   Clear
11:15 AM 13.5 °F 1.3 °F -4.2 °F 45% 30.49 in 10.0 mi SW 9.2 mph - N/A   Clear
11:35 AM 14.9 °F 1.6 °F -5.1 °F 41% 30.48 in 10.0 mi SW 11.5 mph - N/A   Clear
11:55 AM 16.3 °F 4.1 °F -4.5 °F 40% 30.46 in 10.0 mi SSW 10.4 mph - N/A   Clear
12:15 PM 17.6 °F 5.0 °F -4.0 °F 38% 30.45 in 10.0 mi SW 11.5 mph 16.1 mph N/A   Clear
12:35 PM 18.1 °F 4.4 °F -2.9 °F 39% 30.44 in 10.0 mi SW 13.8 mph - N/A   Clear
12:55 PM 18.1 °F 3.9 °F -2.6 °F 40% 30.43 in 10.0 mi SW 15.0 mph - N/A   Clear
1:15 PM 19.0 °F 6.1 °F -1.3 °F 41% 30.42 in 10.0 mi SSW 12.7 mph - N/A   Clear
1:35 PM 19.2 °F 5.8 °F -0.8 °F 42% 30.41 in 10.0 mi SSW 13.8 mph - N/A   Clear
1:55 PM 18.5 °F 4.9 °F -0.9 °F 43% 30.41 in 10.0 mi SW 13.8 mph 19.6 mph N/A   Clear
2:15 PM 20.1 °F 7.5 °F -0.2 °F 41% 30.40 in 10.0 mi SW 12.7 mph - N/A   Clear
2:35 PM 21.2 °F 9.5 °F -0.2 °F 39% 30.39 in 10.0 mi SW 11.5 mph - N/A   Clear
2:55 PM 22.1 °F 11.3 °F -0.8 °F 37% 30.38 in 10.0 mi SW 10.4 mph 17.3 mph N/A   Clear
3:15 PM 22.1 °F 10.0 °F -2.9 °F 33% 30.36 in 10.0 mi SSW 12.7 mph 19.6 mph N/A   Clear
3:35 PM 21.9 °F 8.2 °F -1.7 °F 36% 30.35 in 10.0 mi SSW 16.1 mph - N/A   Clear
3:55 PM 21.9 °F 9.8 °F -1.7 °F 36% 30.35 in 10.0 mi SSW 12.7 mph 17.3 mph N/A   Clear
4:15 PM 21.9 °F 9.2 °F -1.5 °F 36% 30.35 in 10.0 mi SW 13.8 mph - N/A   Clear
4:35 PM 21.4 °F 8.5 °F -0.8 °F 38% 30.35 in 10.0 mi SW 13.8 mph 20.7 mph N/A   Clear
4:55 PM 20.3 °F 7.2 °F -2.0 °F 38% 30.34 in 10.0 mi SW 13.8 mph - N/A   Clear
5:15 PM 19.4 °F 6.6 °F -1.3 °F 40% 30.34 in 10.0 mi SSW 12.7 mph 18.4 mph N/A   Clear
5:35 PM 18.3 °F 6.6 °F -0.6 °F 44% 30.34 in 10.0 mi SSW 10.4 mph - N/A   Clear
5:55 PM 17.6 °F 5.7 °F -1.5 °F 43% 30.34 in 10.0 mi SSW 10.4 mph 16.1 mph N/A   Scattered Clouds
6:15 PM 17.2 °F 3.9 °F -1.5 °F 44% 30.34 in 10.0 mi SW 12.7 mph 17.3 mph N/A   Scattered Clouds
6:35 PM 17.1 °F 4.3 °F -1.1 °F 45% 30.33 in 10.0 mi SW 11.5 mph 17.3 mph N/A   Mostly Cloudy
6:55 PM 16.3 °F 4.1 °F -1.7 °F 45% 30.33 in 10.0 mi SW 10.4 mph 16.1 mph N/A   Scattered Clouds
7:15 PM 16.5 °F 4.3 °F -1.3 °F 46% 30.33 in 10.0 mi SW 10.4 mph - N/A   Clear
7:35 PM 16.7 °F 5.3 °F -0.4 °F 47% 30.33 in 10.0 mi SW 9.2 mph - N/A   Clear
7:55 PM 17.1 °F 5.8 °F -0.8 °F 46% 30.32 in 10.0 mi SSW 9.2 mph - N/A   Mostly Cloudy
8:15 PM 17.1 °F 5.8 °F -0.8 °F 46% 30.32 in 10.0 mi SW 9.2 mph - N/A   Scattered Clouds
8:35 PM 17.2 °F 3.9 °F -0.0 °F 47% 30.31 in 10.0 mi SW 12.7 mph - N/A   Clear
8:55 PM 17.6 °F 3.2 °F 0.1 °F 46% 30.31 in 10.0 mi SW 15.0 mph - N/A   Clear
9:15 PM 17.6 °F 3.7 °F -0.0 °F 46% 30.31 in 10.0 mi SW 13.8 mph - N/A   Clear
9:35 PM 18.1 °F 5.0 °F 0.3 °F 46% 30.30 in 10.0 mi SW 12.7 mph 18.4 mph N/A   Clear
9:55 PM 18.5 °F 5.5 °F 0.9 °F 46% 30.30 in 10.0 mi SW 12.7 mph 16.1 mph N/A   Clear
10:15 PM 18.7 °F 5.7 °F 1.0 °F 46% 30.30 in 10.0 mi WSW 12.7 mph - N/A   Clear
10:35 PM 18.5 °F 6.1 °F 1.8 °F 48% 30.31 in 10.0 mi SW 11.5 mph 18.4 mph N/A   Clear
10:55 PM 18.3 °F 4.6 °F 2.3 °F 50% 30.30 in 10.0 mi SW 13.8 mph - N/A   Clear
11:15 PM 18.5 °F 7.5 °F 3.0 °F 51% 30.30 in 10.0 mi SW 9.2 mph - N/A   Scattered Clouds
11:35 PM 19.4 °F 9.5 °F 4.1 °F 52% 30.29 in 10.0 mi SW 8.1 mph - N/A   Mostly Cloudy
11:55 PM 19.9 °F 9.3 °F 4.8 °F 52% 30.29 in 10.0 mi SSW 9.2 mph - N/A   Overcast